Hourly Weather Jumurtov

Today, 30 November, Monday

Time Temperature Precipitation Wind Pressure Humidity
00:00 -6°C° 0 mm 8 mps 769 mmHg 46%
01:00 -6°C° 0 mm 8 mps 769 mmHg 45%
02:00 -6°C° 0 mm 8 mps 768 mmHg 45%
03:00 -6°C° 0 mm 8 mps 768 mmHg 44%
04:00 -6°C° 0 mm 8 mps 768 mmHg 44%
05:00 -6°C° 0 mm 8 mps 768 mmHg 44%
06:00 -6°C° 0 mm 8 mps 767 mmHg 44%
07:00 -6°C° 0 mm 8 mps 767 mmHg 44%
08:00 -5°C° 0 mm 9 mps 767 mmHg 42%
09:00 -4°C° 0 mm 9 mps 767 mmHg 39%
10:00 -3°C° 0 mm 10 mps 767 mmHg 37%
11:00 -2°C° 0 mm 10 mps 766 mmHg 35%
12:00 0°C° 0 mm 9 mps 766 mmHg 34%
13:00 +1°C° 0 mm 9 mps 765 mmHg 32%
14:00 0°C° 0 mm 9 mps 765 mmHg 34%
15:00 0°C° 0 mm 8 mps 765 mmHg 36%
16:00 -1°C° 0 mm 8 mps 764 mmHg 38%
17:00 -2°C° 0 mm 7 mps 764 mmHg 39%
18:00 -3°C° 0 mm 7 mps 764 mmHg 41%
19:00 -3°C° 0 mm 6 mps 764 mmHg 42%
20:00 -4°C° 0.1 mm 6 mps 764 mmHg 43%
21:00 -4°C° 0.1 mm 6 mps 764 mmHg 44%
22:00 -4°C° 0.1 mm 7 mps 764 mmHg 45%
23:00 -4°C° 0 mm 6 mps 764 mmHg 49%

Tomorrow, 1 December, Tuesday

Time Temperature Precipitation Wind Pressure Humidity
00:00 -5°C° 0 mm 6 mps 764 mmHg 52%
01:00 -5°C° 0 mm 6 mps 763 mmHg 55%
02:00 -5°C° 0 mm 6 mps 763 mmHg 57%
03:00 -6°C° 0 mm 5 mps 763 mmHg 60%
04:00 -6°C° 0 mm 5 mps 763 mmHg 62%
05:00 -7°C° 0 mm 5 mps 763 mmHg 63%
06:00 -7°C° 0 mm 5 mps 763 mmHg 65%
07:00 -8°C° 0 mm 5 mps 763 mmHg 66%
08:00 -6°C° 0 mm 5 mps 763 mmHg 59%
09:00 -5°C° 0 mm 5 mps 763 mmHg 52%
10:00 -2°C° 0 mm 5 mps 764 mmHg 45%
11:00 -1°C° 0 mm 5 mps 763 mmHg 42%
12:00 0°C° 0 mm 5 mps 763 mmHg 38%
13:00 +1°C° 0 mm 5 mps 762 mmHg 35%
14:00 0°C° 0 mm 5 mps 762 mmHg 38%
15:00 -1°C° 0 mm 5 mps 762 mmHg 42%
16:00 -2°C° 0 mm 5 mps 762 mmHg 45%
17:00 -5°C° 0 mm 5 mps 762 mmHg 51%
18:00 -5°C° 0 mm 4 mps 762 mmHg 57%
19:00 -8°C° 0 mm 4 mps 762 mmHg 63%
20:00 -8°C° 0 mm 4 mps 762 mmHg 64%
21:00 -8°C° 0 mm 4 mps 762 mmHg 66%
22:00 -8°C° 0 mm 3 mps 762 mmHg 68%
23:00 -8°C° 0 mm 3 mps 763 mmHg 70%

Day after tomorrow, 2 December, Wednesday

Time Temperature Precipitation Wind Pressure Humidity
00:00 -8°C° 0 mm 3 mps 763 mmHg 71%
01:00 -9°C° 0 mm 3 mps 763 mmHg 73%
02:00 -9°C° 0 mm 3 mps 763 mmHg 74%
03:00 -9°C° 0 mm 3 mps 763 mmHg 75%
04:00 -9°C° 0 mm 3 mps 763 mmHg 77%
05:00 -9°C° 0 mm 3 mps 763 mmHg 77%
06:00 -9°C° 0 mm 3 mps 763 mmHg 78%
07:00 -10°C° 0 mm 3 mps 763 mmHg 78%
08:00 -8°C° 0 mm 3 mps 763 mmHg 69%
09:00 -5°C° 0 mm 2 mps 763 mmHg 59%
10:00 -3°C° 0 mm 2 mps 763 mmHg 49%
11:00 -1°C° 0 mm 2 mps 763 mmHg 44%
12:00 +1°C° 0 mm 2 mps 763 mmHg 39%
13:00 +3°C° 0 mm 2 mps 763 mmHg 35%
14:00 +1°C° 0 mm 3 mps 763 mmHg 38%
15:00 0°C° 0 mm 3 mps 762 mmHg 41%
16:00 -2°C° 0 mm 4 mps 762 mmHg 45%
17:00 -4°C° 0 mm 4 mps 763 mmHg 51%
18:00 -5°C° 0 mm 4 mps 763 mmHg 58%
19:00 -6°C° 0 mm 3 mps 763 mmHg 64%
20:00 -7°C° 0 mm 3 mps 763 mmHg 67%
21:00 -7°C° 0 mm 3 mps 763 mmHg 71%
22:00 -7°C° 0 mm 3 mps 763 mmHg 74%
23:00 -8°C° 0 mm 3 mps 763 mmHg 75%

3 December, Thursday

Time Temperature Precipitation Wind Pressure Humidity
00:00 -8°C° 0 mm 3 mps 763 mmHg 76%
01:00 -8°C° 0 mm 3 mps 763 mmHg 77%
02:00 -8°C° 0 mm 3 mps 763 mmHg 77%
03:00 -8°C° 0 mm 3 mps 763 mmHg 78%
04:00 -8°C° 0 mm 3 mps 763 mmHg 78%
05:00 -8°C° 0 mm 3 mps 763 mmHg 78%
06:00 -8°C° 0 mm 3 mps 763 mmHg 77%
07:00 -8°C° 0 mm 3 mps 764 mmHg 76%
08:00 -7°C° 0 mm 4 mps 764 mmHg 67%
09:00 -4°C° 0 mm 4 mps 764 mmHg 58%
10:00 -3°C° 0 mm 4 mps 764 mmHg 49%
11:00 -2°C° 0 mm 4 mps 764 mmHg 46%
12:00 -1°C° 0 mm 5 mps 764 mmHg 43%
13:00 0°C° 0 mm 5 mps 764 mmHg 40%
14:00 -1°C° 0 mm 5 mps 764 mmHg 44%
15:00 -2°C° 0 mm 5 mps 764 mmHg 48%
16:00 -3°C° 0 mm 4 mps 764 mmHg 51%
17:00 -4°C° 0 mm 4 mps 764 mmHg 60%
18:00 -5°C° 0 mm 4 mps 764 mmHg 68%
19:00 -7°C° 0 mm 4 mps 764 mmHg 76%
20:00 -8°C° 0 mm 4 mps 764 mmHg 79%
21:00 -7°C° 0 mm 3 mps 764 mmHg 81%
22:00 -8°C° 0 mm 3 mps 765 mmHg 83%
23:00 -7°C° 0 mm 2 mps 765 mmHg 85%

4 December, Friday

Time Temperature Precipitation Wind Pressure Humidity
00:00 -8°C° 0 mm 2 mps 765 mmHg 86%
01:00 -9°C° 0 mm 2 mps 765 mmHg 88%
02:00 -9°C° 0 mm 2 mps 765 mmHg 89%
03:00 -9°C° 0 mm 2 mps 765 mmHg 90%
04:00 -9°C° 0 mm 2 mps 765 mmHg 90%
05:00 -9°C° 0 mm 2 mps 765 mmHg 92%
06:00 -10°C° 0 mm 2 mps 765 mmHg 93%
07:00 -9°C° 0 mm 1 mps 765 mmHg 95%
08:00 -7°C° 0 mm 1 mps 766 mmHg 86%
09:00 -3°C° 0 mm 1 mps 766 mmHg 78%
10:00 0°C° 0 mm 1 mps 766 mmHg 70%
11:00 -1°C° 0 mm 2 mps 766 mmHg 63%
12:00 +1°C° 0 mm 2 mps 766 mmHg 57%
13:00 +2°C° 0 mm 2 mps 765 mmHg 51%
14:00 +1°C° 0 mm 2 mps 765 mmHg 55%
15:00 -1°C° 0 mm 2 mps 765 mmHg 58%
16:00 0°C° 0 mm 1 mps 765 mmHg 62%
17:00 -1°C° 0 mm 1 mps 765 mmHg 67%
18:00 -3°C° 0 mm 1 mps 765 mmHg 72%
19:00 -6°C° 0 mm 1 mps 765 mmHg 77%
20:00 -6°C° 0 mm 1 mps 765 mmHg 79%
21:00 -6°C° 0 mm 1 mps 765 mmHg 80%
22:00 -7°C° 0 mm 1 mps 765 mmHg 81%
23:00 -7°C° 0 mm 1 mps 765 mmHg 83%

5 December, Saturday

Time Temperature Precipitation Wind Pressure Humidity
00:00 -8°C° 0 mm 1 mps 765 mmHg 85%
01:00 -9°C° 0 mm 0 mps 765 mmHg 87%
02:00 -8°C° 0 mm 1 mps 764 mmHg 87%
03:00 -8°C° 0 mm 1 mps 764 mmHg 87%
04:00 -8°C° 0 mm 1 mps 764 mmHg 87%
05:00 -9°C° 0 mm 2 mps 764 mmHg 88%
06:00 -9°C° 0 mm 2 mps 764 mmHg 89%
07:00 -9°C° 0 mm 2 mps 764 mmHg 90%
08:00 -6°C° 0 mm 2 mps 764 mmHg 82%
09:00 -4°C° 0 mm 2 mps 764 mmHg 74%
10:00 -2°C° 0 mm 2 mps 764 mmHg 66%
11:00 +1°C° 0 mm 1 mps 764 mmHg 60%
12:00 +2°C° 0 mm 1 mps 764 mmHg 55%
13:00 +3°C° 0 mm 1 mps 763 mmHg 49%
14:00 +1°C° 0 mm 2 mps 763 mmHg 53%
15:00 +1°C° 0 mm 2 mps 763 mmHg 56%
16:00 -1°C° 0 mm 3 mps 762 mmHg 60%
17:00 -4°C° 0 mm 3 mps 762 mmHg 67%
18:00 -5°C° 0 mm 3 mps 762 mmHg 74%
19:00 -7°C° 0 mm 3 mps 763 mmHg 82%
20:00 -7°C° 0 mm 3 mps 763 mmHg 82%
21:00 -6°C° 0 mm 2 mps 763 mmHg 82%
22:00 -7°C° 0 mm 2 mps 763 mmHg 82%
23:00 -7°C° 0 mm 2 mps 762 mmHg 83%
Show more